Theta_e
321 322 320 321 321 322 320 321 322 321 320 317 320 317 316 316 315 316 314 313 312 313 314 314 313 313 314 314 314 314 314 316 315 315 314 314 316 317 319 324 327 331 331 331 332 333 332 330 330 330 330 330 328 328 328 326 325 324 324 323 322 321 321 321 320 320 320 319 319 319 319 318 319 319 318 318 318 318 317 317 316 316 315 315 315
322 321 321 320 317 319 319 320 321 319 320 318 317 317 316 313 313 313 313 313 313 315 313 315 314 314 312 314 315 316 316 314 315 315 316 316 316 317 317 321 325 330 331 332 332 332 332 332 331 331 331 331 330 329 328 327 327 327 326 325 324 324 322 322 321 320 320 320 320 320 320 319 319 319 318 318 318 318 318 317 317 317 316 315 315
321 321 321 320 319 320 319 317 318 317 319 319 316 317 316 316 316 315 314 313 314 313 314 315 314 314 313 313 314 314 315 316 313 314 315 315 316 315 317 318 322 326 330 332 332 332 332 332 333 333 333 333 332 331 330 329 328 328 327 327 326 325 325 324 322 322 321 321 320 320 320 320 320 319 319 319 319 319 318 318 318 317 317 316 316
320 320 321 320 319 319 320 318 318 317 318 319 316 316 315 314 313 314 313 312 313 311 311 313 314 314 311 313 314 314 314 314 314 315 314 314 314 316 316 317 317 320 325 329 332 332 332 332 333 333 333 332 333 332 332 332 331 329 328 328 328 326 326 325 324 323 322 323 321 321 321 320 320 320 320 319 319 319 318 319 318 318 317 317 316
320 320 318 319 320 320 320 320 320 320 318 317 316 314 313 312 312 313 313 312 311 313 311 310 311 313 312 313 313 314 315 315 315 314 314 314 314 315 316 316 316 315 317 321 328 332 332 332 332 332 332 333 332 333 333 333 333 331 330 330 329 328 327 326 325 324 324 324 323 322 321 321 320 320 320 320 320 319 319 318 318 318 318 317 317
321 320 319 319 318 318 319 319 320 318 318 317 317 314 314 312 311 311 314 311 313 313 311 312 310 310 311 312 309 313 313 314 314 315 314 314 314 315 316 316 315 316 317 317 320 323 329 332 332 331 332 333 333 332 333 334 333 332 331 330 330 330 330 328 327 326 326 326 325 324 323 322 321 321 320 321 320 319 319 318 319 319 318 318 317
321 320 319 319 319 317 316 319 320 317 318 315 316 315 313 314 311 311 311 311 311 312 311 312 311 312 313 313 313 313 313 313 314 314 314 314 314 314 315 316 316 316 316 317 314 317 322 328 331 331 332 332 333 334 334 333 333 333 332 331 331 332 332 332 329 328 328 326 326 324 324 323 322 322 321 321 320 321 320 319 319 319 319 318 317
321 321 320 319 320 321 319 319 317 317 317 315 314 315 313 313 313 312 311 311 311 311 310 310 311 311 311 311 311 311 312 312 313 312 313 313 313 314 315 315 316 316 314 316 316 316 318 320 325 329 331 332 332 333 334 334 334 333 333 332 332 332 331 331 331 331 331 328 327 325 325 323 324 323 322 322 321 321 320 319 319 319 319 320 319
323 323 324 322 320 319 319 318 318 318 317 315 316 316 315 315 315 313 313 311 309 309 310 309 310 310 310 310 311 311 311 311 312 312 313 312 312 313 314 315 315 312 315 315 316 316 316 317 320 324 326 328 331 332 332 334 335 334 333 332 332 332 332 331 332 331 329 328 327 326 325 324 324 323 323 322 322 322 321 320 320 320 319 319 319
327 325 325 325 325 324 324 323 321 321 320 318 318 317 316 315 314 312 312 311 310 309 309 309 310 310 310 309 310 309 310 310 310 308 309 311 311 312 313 314 315 315 315 315 316 316 316 316 316 317 317 319 325 330 332 332 333 334 334 333 333 332 333 332 331 331 330 329 328 327 327 326 325 325 324 323 323 322 322 321 321 320 320 320 320
327 327 326 325 323 323 321 322 323 323 322 321 319 317 314 312 312 313 310 312 312 311 311 310 310 310 309 309 307 308 308 307 308 307 309 310 311 311 312 313 313 314 314 314 315 315 316 316 316 316 316 316 322 327 329 331 330 333 334 334 334 333 332 332 331 330 330 330 329 328 327 327 327 325 325 324 323 323 323 322 322 322 321 321 320
327 327 326 323 320 320 323 323 320 318 318 319 319 318 317 314 312 312 312 313 312 312 311 310 309 308 306 307 307 306 307 307 307 308 308 309 310 311 310 311 310 311 312 313 314 314 315 315 314 317 317 317 317 320 323 327 329 331 332 334 335 334 333 332 331 331 331 330 330 330 328 328 327 326 326 325 324 324 323 323 323 323 322 322 321
324 324 323 321 322 323 324 322 320 319 318 318 318 317 317 316 316 314 312 312 313 313 312 309 308 309 309 307 308 309 309 309 310 310 309 310 309 309 309 309 309 309 310 311 312 312 313 313 315 316 316 317 317 315 317 319 320 327 330 331 333 333 333 333 332 331 331 331 330 330 329 328 327 327 326 326 325 324 324 324 324 324 324 323 322
323 324 325 326 325 324 323 322 321 321 319 319 320 317 318 317 317 315 313 312 313 314 313 310 308 307 308 308 309 310 311 310 309 309 309 308 308 308 308 308 308 308 308 308 308 309 311 312 313 314 315 316 316 316 316 316 316 321 326 328 329 332 334 333 333 332 331 332 331 331 329 328 328 327 329 329 326 326 325 325 325 324 324 323 323
326 326 327 328 326 324 322 322 321 321 319 318 317 316 317 316 317 317 315 314 314 313 312 312 311 306 308 307 307 307 308 304 306 307 307 307 307 307 308 307 307 307 307 306 307 307 309 310 311 312 313 314 314 315 315 313 314 313 320 323 327 330 332 332 333 332 331 330 329 329 327 327 328 327 329 328 329 327 327 326 325 325 325 324 324
328 328 328 328 327 326 326 323 323 320 320 321 320 320 317 316 316 316 316 315 312 312 312 310 311 309 307 306 306 306 305 304 302 308 307 308 307 307 306 306 306 306 306 306 307 307 307 308 309 310 311 312 313 313 314 314 313 310 310 311 316 324 328 330 332 331 331 331 331 330 329 328 329 329 328 329 327 327 328 325 326 327 326 325 324
326 327 326 328 327 326 325 325 324 322 322 321 320 320 319 317 318 317 316 316 315 313 312 311 310 312 312 308 306 302 304 307 310 312 313 305 304 305 305 305 305 305 305 305 306 306 307 307 308 309 310 310 311 312 312 312 313 311 312 308 310 316 322 326 329 330 330 330 332 331 329 329 328 328 328 328 329 329 328 328 326 328 327 326 324
326 327 328 326 327 328 327 327 325 324 322 322 321 320 320 319 319 318 317 316 316 314 312 311 312 311 312 314 313 310 309 310 308 305 307 309 311 308 307 306 305 304 304 304 305 305 306 306 307 308 309 309 310 310 311 311 310 311 311 312 313 316 319 322 324 327 329 329 330 330 330 329 329 328 328 328 327 328 326 327 326 327 327 326 325
322 323 325 325 326 326 327 326 325 325 323 323 322 322 321 320 318 318 319 315 314 313 313 314 311 310 310 311 311 311 312 307 305 307 303 307 310 310 308 308 308 306 304 304 305 305 306 306 307 308 308 309 309 309 310 310 310 310 311 312 316 314 315 316 319 322 325 327 328 329 329 329 328 328 327 327 327 326 328 328 326 328 325 325 325
319 320 322 322 322 323 324 323 323 324 322 322 322 322 321 321 318 317 316 315 315 314 314 314 312 312 309 308 308 308 308 308 307 305 303 300 304 309 310 310 310 311 311 310 308 307 307 306 306 307 307 308 308 309 309 309 309 309 310 314 316 314 314 316 315 316 319 323 326 327 328 327 327 327 327 325 325 326 325 325 326 327 328 323 324
319 320 320 320 319 321 321 321 320 321 317 321 321 321 321 320 319 318 317 317 316 317 316 315 314 313 310 308 307 307 307 307 306 305 302 302 304 306 307 309 309 309 309 310 310 309 307 308 308 307 307 307 307 307 307 307 308 308 308 313 316 317 318 319 318 317 316 315 318 321 323 325 325 325 326 326 325 324 324 325 324 325 326 326 324
316 315 315 315 315 314 316 317 318 319 317 320 319 319 319 319 320 319 319 318 317 315 314 315 314 314 313 312 309 304 304 305 304 304 304 304 301 303 305 305 305 309 310 311 309 310 309 308 307 307 307 307 308 307 307 307 307 307 307 309 311 315 317 318 318 317 316 316 316 316 317 319 322 324 325 325 324 323 324 324 325 324 325 325 325
311 311 309 310 311 311 312 313 314 313 313 314 315 316 316 316 317 317 317 317 316 316 314 313 313 313 313 312 311 312 310 307 308 307 303 300 303 305 308 308 308 308 310 310 310 310 310 311 311 310 309 309 309 308 307 307 305 305 306 307 309 311 312 314 315 315 315 314 314 314 316 316 316 319 322 323 323 324 324 323 323 323 323 324 324
306 306 308 308 308 308 310 311 310 311 313 315 316 315 314 313 313 312 312 313 314 313 314 314 314 314 313 313 313 312 312 312 312 311 310 308 307 305 306 308 308 309 311 312 312 311 311 310 310 310 309 308 308 308 308 307 307 303 304 305 307 310 311 313 315 314 313 313 312 313 314 314 315 315 316 318 320 321 322 323 323 323 322 323 323
304 305 302 303 304 305 305 305 306 306 305 307 309 312 313 312 311 310 310 311 312 311 310 311 312 313 313 314 314 312 312 312 312 311 311 311 309 306 308 309 305 307 310 310 309 310 309 309 308 308 308 308 308 307 307 307 306 305 303 303 305 306 308 310 314 314 314 313 313 312 311 311 313 313 314 315 316 317 319 321 322 323 323 323 324
302 302 301 302 303 302 302 302 301 302 303 304 306 307 309 311 312 312 311 311 310 307 306 306 308 310 311 310 310 311 311 312 312 311 310 309 307 306 305 306 307 305 307 307 308 306 305 306 307 308 306 307 306 306 306 306 306 303 301 303 304 305 306 308 310 310 310 310 311 310 310 310 310 311 312 313 314 314 315 317 319 321 322 322 323
301 299 301 301 300 301 301 301 302 302 302 302 303 303 303 305 305 306 307 307 307 306 304 305 307 307 307 308 308 308 309 310 310 309 310 309 308 307 304 300 301 302 301 303 303 303 304 307 306 306 305 305 306 305 305 304 303 303 301 304 305 302 304 306 309 310 311 310 310 310 309 309 309 310 312 312 313 313 313 314 316 316 318 320 320
299 299 298 298 298 299 299 299 299 300 300 300 300 300 299 300 299 300 300 303 302 300 300 302 302 303 303 304 304 304 306 306 306 306 306 306 305 306 305 302 298 294 298 297 299 301 304 303 302 303 305 304 305 305 302 303 305 302 300 304 305 303 303 304 308 310 310 310 310 309 309 309 310 311 311 310 310 310 311 312 312 313 313 314 315
296 296 296 295 296 296 297 297 297 297 298 298 298 297 297 297 297 296 298 297 296 295 296 298 297 298 299 300 301 301 301 302 302 303 304 305 305 305 305 302 301 297 295 296 298 298 299 302 301 304 303 304 304 302 303 303 302 302 303 303 303 304 303 304 308 309 310 310 311 311 309 309 310 309 309 309 309 309 309 308 308 308 309 310 310
295 295 294 294 294 293 294 294 294 295 295 295 295 295 295 294 294 293 293 293 294 293 293 293 296 296 296 297 297 296 297 297 298 300 300 301 302 303 304 305 304 299 297 293 294 298 300 303 301 301 303 301 300 303 302 302 301 301 302 303 303 304 303 304 306 307 307 308 308 308 308 309 308 308 307 306 307 307 309 308 308 308 309 310 311
294 293 292 291 290 290 290 290 291 291 291 292 291 292 290 291 290 289 290 291 290 290 291 291 294 294 293 293 293 293 294 295 296 296 296 296 300 301 302 302 302 302 300 298 293 297 300 297 298 300 300 301 302 302 302 301 300 301 301 302 302 300 298 299 299 301 303 304 306 307 308 309 308 308 307 306 306 307 307 307 307 308 308 309 310
291 289 288 288 288 289 289 290 289 289 289 289 288 288 288 288 288 289 289 289 290 289 290 290 291 291 290 291 291 291 291 289 292 292 293 293 295 297 299 300 300 299 297 294 292 292 297 297 298 299 299 299 299 298 299 300 301 298 300 300 300 297 298 298 298 299 301 303 306 306 306 307 306 306 306 305 306 306 306 306 306 307 307 308 309
286 288 287 287 286 286 286 287 286 287 287 289 289 289 288 288 288 287 289 288 288 288 286 289 288 287 287 289 291 291 289 289 290 291 291 292 292 294 297 298 297 298 298 296 293 292 294 296 296 295 296 297 296 298 297 298 298 299 298 299 299 299 300 299 299 297 299 301 302 302 304 305 304 303 304 303 303 303 303 304 303 304 305 306 307
285 286 286 286 286 285 285 286 286 286 287 289 287 288 288 288 288 290 286 287 287 287 286 288 288 289 287 288 290 290 288 289 289 290 290 290 289 291 293 294 294 295 297 294 292 291 290 294 294 296 296 297 295 297 296 296 297 297 297 298 299 298 298 299 300 300 299 299 300 301 303 303 302 301 302 301 301 300 301 303 302 303 304 305 307
285 286 286 286 285 285 286 286 287 287 287 286 286 286 287 285 286 287 285 285 286 286 287 288 288 287 287 287 288 288 288 287 287 288 288 288 288 289 290 292 292 292 294 295 293 289 290 290 293 293 294 294 294 294 295 296 296 297 296 296 297 298 299 298 298 297 298 299 301 301 301 300 300 300 300 300 300 300 300 301 300 301 303 306 306
287 286 285 286 286 286 286 286 286 286 286 286 286 285 285 285 286 287 286 284 285 285 286 287 287 286 287 287 287 287 287 287 287 287 287 286 287 287 288 289 290 291 292 292 293 292 290 289 291 292 293 292 292 294 295 295 295 294 295 295 295 295 295 295 294 294 294 298 299 298 299 299 299 299 299 299 299 299 299 299 300 302 304 303 303
285 286 287 285 286 286 286 285 285 284 285 284 285 285 285 284 284 284 284 285 284 285 285 286 287 286 286 286 287 287 287 286 287 286 286 286 286 286 286 287 288 289 290 290 290 291 290 289 290 292 292 292 293 293 293 292 293 293 293 293 294 294 293 293 291 291 294 297 297 297 296 297 297 297 297 298 298 298 298 298 302 303 300 300 299
285 284 284 284 283 283 283 283 283 284 284 284 284 284 285 285 284 283 283 283 283 284 284 285 285 285 286 286 287 286 286 286 286 287 286 286 286 286 286 286 287 288 289 289 290 290 289 289 289 289 291 290 290 291 292 291 291 291 291 292 293 292 290 290 290 290 290 290 290 291 292 294 295 296 296 296 297 297 297 299 299 299 298 297 297
282 283 282 282 283 283 284 283 284 284 284 284 284 283 284 284 284 283 285 284 285 284 284 285 285 285 285 286 286 286 286 286 286 287 287 286 286 286 286 286 287 288 288 288 289 288 288 288 288 289 289 290 290 289 291 292 291 291 289 289 289 291 290 289 290 291 289 288 290 292 291 291 291 291 292 293 294 295 295 299 298 297 295 295 296
282 283 283 283 283 282 282 282 283 282 282 283 283 283 283 284 284 284 284 285 285 284 284 285 284 285 285 285 285 286 286 286 286 287 286 286 287 286 287 286 286 287 287 288 288 288 287 287 287 287 288 288 289 290 290 290 289 289 290 289 287 289 290 291 289 288 289 287 287 287 289 290 290 291 292 292 293 294 294 297 296 293 292 294 295
283 282 282 282 282 282 282 282 283 283 284 285 285 284 285 285 284 285 285 284 284 284 284 283 283 284 284 284 284 285 285 286 287 288 288 289 288 287 287 287 286 286 287 287 287 287 287 287 286 287 287 287 287 288 287 287 287 287 289 289 288 289 290 289 290 289 287 287 287 286 286 286 286 286 287 287 289 291 294 294 292 292 293 295 295
280 281 281 281 281 281 282 282 282 283 284 284 285 288 290 287 285 285 284 284 283 283 283 283 283 283 283 283 284 285 286 286 286 287 289 289 289 289 288 287 287 287 287 287 287 287 286 286 286 286 285 286 286 287 287 287 288 288 288 288 287 288 289 289 290 290 287 286 285 285 286 286 286 286 287 287 288 290 290 290 289 291 293 294 294
280 280 280 280 280 280 281 281 282 283 284 284 287 290 290 291 288 284 283 283 283 282 282 282 282 283 283 283 283 284 284 285 285 287 288 289 289 289 290 290 289 288 287 286 287 287 286 286 286 286 285 285 286 287 287 288 288 287 287 288 288 288 287 286 285 288 286 285 285 285 285 286 286 285 286 287 288 287 288 288 292 293 293 293 293
279 279 279 280 280 279 280 280 280 282 282 285 288 289 290 290 290 286 284 283 283 283 282 282 282 282 282 283 283 284 284 284 284 285 286 287 288 289 289 289 289 290 290 288 287 286 286 286 285 286 286 285 286 287 287 287 287 287 288 288 287 287 286 286 286 286 287 285 284 284 284 285 285 285 283 284 285 286 286 290 293 293 293 292 292
279 279 279 279 279 279 279 279 280 281 280 285 287 289 290 290 290 288 284 283 283 282 282 282 282 282 282 282 282 283 284 284 284 284 284 284 286 287 288 288 288 289 289 290 291 289 288 287 286 286 286 287 286 286 287 287 288 286 287 287 287 287 286 286 286 287 287 285 285 284 282 283 283 283 281 283 285 285 288 291 293 293 292 291 291
278 278 277 278 279 279 279 279 279 280 280 283 287 288 288 289 289 289 284 283 282 282 282 282 282 281 282 282 282 282 283 283 283 283 283 284 284 285 285 285 285 286 288 288 289 289 289 288 287 286 287 288 286 287 288 288 287 286 286 286 286 286 286 286 287 287 287 285 285 284 280 280 281 281 280 282 285 286 287 290 292 292 292 291 290
277 278 278 277 279 277 278 276 278 279 280 285 286 287 288 288 289 288 283 282 282 281 282 281 281 281 282 282 282 282 282 283 283 284 284 284 284 285 285 285 285 285 286 286 287 287 287 288 287 287 288 288 288 288 288 289 288 288 288 287 287 287 287 287 287 287 286 286 286 284 280 279 281 279 279 280 284 285 286 290 291 291 290 290 289
276 276 276 276 277 277 277 276 277 278 279 284 285 286 287 287 288 284 282 281 281 281 281 281 281 282 282 282 281 282 282 282 284 286 287 286 285 285 285 285 285 285 285 287 289 289 288 288 288 288 288 288 289 288 288 288 288 288 288 288 288 287 286 284 283 286 284 285 286 284 278 276 279 278 278 280 283 284 285 286 289 290 290 289 288
275 275 275 275 276 276 275 275 276 277 277 281 284 285 286 287 286 282 282 281 281 281 281 281 282 282 282 282 282 282 282 282 285 287 288 287 285 285 285 284 285 285 285 286 288 289 289 289 289 290 290 290 290 290 291 291 290 289 288 286 285 286 284 283 283 284 283 284 284 284 279 276 278 278 277 277 280 282 283 285 286 289 289 288 288
274 275 275 275 274 274 274 274 275 276 277 280 283 284 285 286 286 282 281 280 280 280 280 281 281 281 282 283 283 282 282 282 286 287 288 287 285 284 284 283 283 283 284 286 286 287 288 288 288 288 289 289 289 289 290 290 290 289 286 283 285 285 283 283 282 283 282 282 283 281 278 276 277 277 275 275 275 274 279 283 284 286 287 287 287
274 274 275 274 274 273 273 274 278 277 276 278 282 284 284 285 284 281 281 280 279 279 280 280 281 281 282 282 283 284 284 285 287 288 288 286 284 284 283 283 282 282 284 285 285 285 285 285 285 286 286 287 287 286 286 288 289 288 287 286 286 285 283 283 283 282 278 280 280 281 277 275 276 277 277 274 270 273 274 277 279 281 281 282 282
Wind_Speed
5 5 5 6 6 5 5 6 6 6 5 4 5 6 5 4 4 4 5 2 2 3 3 4 4 3 4 4 4 4 4 4 4 4 4 3 3 5 9 11 10 9 11 12 14 15 15 13 13 15 15 14 12 12 17 13 11 12 12 12 13 13 13 13 13 13 13 14 14 14 15 14 16 16 15 15 14 16 15 14 12 12 11 13 12
6 5 5 5 4 4 6 6 6 6 6 5 6 5 5 4 4 4 4 4 4 5 4 4 4 4 5 4 5 5 5 4 4 5 5 5 4 5 8 11 12 11 12 13 14 16 16 16 15 15 16 17 16 14 16 14 16 17 16 17 15 14 16 16 15 15 15 15 16 16 16 16 17 16 16 15 15 16 16 14 13 15 14 14 15
5 5 5 5 4 5 5 5 5 4 6 6 4 5 5 5 5 5 4 4 5 4 4 5 5 5 4 4 6 4 5 5 4 4 4 5 5 4 5 10 12 12 12 13 15 17 17 17 18 18 18 18 18 18 17 17 18 18 18 17 17 17 17 17 17 17 17 17 17 17 17 17 18 18 18 17 19 17 17 16 17 16 16 17 17
3 4 5 5 5 6 5 4 5 4 5 5 4 4 4 4 4 4 4 4 4 4 3 4 5 6 4 4 5 5 6 6 5 5 5 4 5 5 5 5 9 12 13 13 15 16 17 18 19 19 19 19 20 18 19 21 20 19 19 19 18 19 20 19 19 19 17 18 18 18 18 18 19 19 19 19 19 19 19 19 18 18 18 19 18
2 3 4 5 5 5 5 5 5 5 4 5 5 4 4 2 3 1 2 2 2 4 2 2 4 6 4 5 5 5 6 5 6 6 6 5 6 6 6 5 5 9 12 13 14 16 17 18 19 20 20 21 20 21 20 21 23 20 18 19 21 20 21 21 19 18 21 19 19 19 20 20 19 20 20 21 21 20 21 20 21 21 20 20 21
3 1 3 4 3 4 4 5 5 4 4 5 6 4 5 3 4 1 4 3 5 5 4 6 5 4 5 5 4 6 6 6 6 7 6 6 7 6 7 6 6 6 6 11 14 15 15 17 19 20 20 21 22 21 21 22 24 22 22 22 24 21 22 23 22 21 22 22 21 21 20 21 23 22 21 22 23 23 23 21 21 22 22 21 22
2 2 3 3 3 3 3 5 5 4 4 4 5 4 4 4 3 3 4 4 5 5 4 6 6 7 6 5 6 6 6 7 6 6 7 7 6 6 7 7 7 7 7 7 9 14 15 17 18 19 20 21 22 23 23 24 24 23 23 23 23 25 25 23 24 24 25 22 23 23 23 24 23 23 23 23 24 24 25 22 21 22 22 23 23
2 1 0 3 3 4 4 3 4 3 3 3 3 4 4 3 4 3 5 6 4 6 4 6 5 7 6 6 6 6 7 7 7 7 7 6 6 7 7 7 7 7 7 7 7 9 15 17 17 17 19 21 22 23 24 25 25 24 24 25 24 25 24 26 26 25 24 25 25 25 23 24 24 25 26 26 25 25 26 24 24 25 24 24 25
3 1 1 1 1 2 3 3 3 3 3 4 4 4 4 5 5 5 5 6 4 5 5 5 6 7 6 6 7 7 7 7 7 7 6 6 7 7 7 8 8 8 7 7 7 7 11 15 16 17 19 19 20 22 24 25 26 26 26 25 26 26 26 25 24 21 24 27 26 26 23 25 26 24 26 25 26 26 26 28 26 26 27 27 26
4 3 3 3 3 3 3 3 2 3 4 4 6 5 4 4 5 3 4 4 4 5 6 6 5 5 6 6 7 6 7 6 6 6 6 7 7 8 9 8 8 8 8 8 8 8 8 11 15 17 18 19 18 20 23 25 26 27 27 27 27 27 26 26 25 24 23 23 25 27 24 24 24 26 25 25 27 27 27 28 28 28 28 28 28
6 7 6 6 5 4 3 3 2 2 4 4 3 2 3 3 4 5 3 5 6 6 7 6 5 5 6 7 6 6 6 5 6 6 6 7 8 10 7 8 7 7 8 8 7 7 8 8 7 8 10 17 17 20 21 24 26 27 28 29 29 29 28 27 27 26 24 24 26 27 28 25 26 28 27 26 27 28 28 28 29 29 30 30 30
7 7 6 6 4 5 5 5 4 3 3 3 3 4 5 5 5 5 6 5 5 5 5 5 5 6 7 8 7 6 7 7 7 7 7 9 10 9 8 9 6 8 8 8 8 8 8 8 8 9 9 12 17 17 19 20 22 24 27 29 30 31 30 30 29 28 27 26 27 27 29 28 29 27 27 27 29 29 28 30 29 31 32 30 30
4 4 5 5 5 5 5 5 5 4 5 6 6 6 5 5 4 4 6 6 5 4 4 3 5 7 6 7 8 6 9 10 10 9 9 10 8 8 8 8 8 8 9 8 8 8 7 8 8 9 9 9 11 15 18 20 21 23 25 27 30 33 33 32 30 29 28 27 25 28 27 29 30 30 29 29 30 31 32 31 30 32 33 32 31
5 5 5 6 6 5 5 6 6 6 6 5 6 6 6 5 4 5 3 6 4 2 3 1 3 5 6 6 6 7 10 9 9 10 9 7 8 8 8 9 9 9 8 7 8 8 8 8 8 9 9 9 10 9 10 12 15 19 23 26 28 31 31 33 32 30 28 30 27 24 23 28 28 28 30 30 31 34 35 34 34 34 34 33 32
5 6 6 6 5 5 6 6 5 5 5 7 5 5 5 5 5 6 5 2 4 3 4 6 5 2 3 5 6 6 3 3 4 7 7 8 8 9 10 8 10 9 8 6 7 8 8 8 9 9 10 10 10 9 9 11 13 16 19 21 24 28 30 32 32 31 30 29 29 28 27 28 31 30 31 32 32 34 34 35 35 35 33 33 34
6 6 6 6 6 6 5 4 5 5 6 7 7 7 4 4 4 4 2 4 3 4 5 6 6 3 5 3 4 4 11 2 3 6 7 9 8 9 6 8 8 8 6 8 9 8 8 7 9 10 10 10 10 9 10 9 14 16 18 20 22 23 27 29 30 32 31 31 31 29 29 28 28 28 32 32 32 33 33 35 37 34 32 35 36
5 5 5 6 6 6 5 4 5 6 6 5 4 6 5 5 6 5 5 6 8 5 3 5 6 5 5 4 4 1 5 6 8 10 6 3 5 6 6 8 8 8 7 8 8 7 7 8 9 10 11 11 10 10 9 10 10 10 14 17 19 19 23 27 29 30 32 33 33 31 30 30 30 30 29 32 31 31 33 34 36 35 34 35 36
3 3 5 5 5 5 5 6 5 3 3 4 4 4 6 7 6 6 6 9 7 4 3 2 6 6 7 7 7 7 9 7 5 8 0 3 9 6 6 7 6 7 6 7 9 8 7 9 9 11 11 10 10 10 9 9 10 10 9 13 18 18 21 24 26 28 31 32 33 33 32 30 31 33 32 30 28 27 30 34 35 34 33 36 37
1 1 0 2 2 3 3 3 3 3 3 3 4 5 5 4 4 6 8 3 3 5 7 5 1 3 7 9 9 9 7 6 7 8 14 1 3 4 4 7 9 7 7 8 10 8 7 8 10 11 11 9 10 9 9 10 13 15 17 18 17 19 21 21 24 26 28 29 30 32 32 32 31 31 32 33 32 33 30 27 30 30 33 33 32
4 3 4 3 2 2 2 2 2 3 3 3 4 4 4 4 3 3 2 3 3 5 5 5 5 4 3 5 5 5 6 6 6 9 10 14 12 7 9 9 8 9 9 9 9 9 9 8 10 11 9 9 10 10 10 10 10 11 12 17 22 22 21 22 23 24 25 27 28 29 30 32 32 33 34 35 34 32 33 34 32 29 27 29 35
3 3 3 3 3 3 3 3 3 3 3 2 3 3 3 3 4 3 3 4 4 5 5 5 4 6 3 3 2 5 6 6 7 6 7 11 16 12 11 5 7 6 8 8 9 9 8 9 10 10 9 9 9 9 9 9 10 10 12 18 20 21 23 23 23 23 23 23 24 25 27 29 30 32 32 34 33 32 32 33 34 31 29 24 27
3 3 4 4 4 3 2 2 2 3 4 4 3 4 5 5 4 5 5 4 3 3 4 4 5 5 3 4 5 3 2 6 5 5 6 8 12 16 13 15 16 8 5 8 6 9 8 8 10 8 9 9 9 9 9 10 9 9 12 18 19 21 24 24 23 22 22 22 22 21 21 23 25 28 30 30 32 33 33 32 31 32 31 31 27
4 4 4 5 5 5 5 5 5 4 3 3 3 4 5 5 5 5 5 6 5 5 5 4 4 5 6 5 6 7 7 4 7 5 5 6 10 14 13 12 13 18 12 5 7 7 6 8 10 9 9 9 8 8 8 9 11 12 18 18 19 20 21 21 22 22 22 23 23 22 22 22 22 24 27 28 29 30 31 33 32 31 32 33 32
5 6 6 5 5 5 5 5 6 5 6 5 5 3 2 4 5 5 5 4 4 4 5 5 5 5 5 4 5 5 7 9 6 6 7 7 8 11 12 14 16 12 11 14 9 9 9 9 9 9 7 8 9 8 9 9 10 16 15 17 18 19 19 19 21 21 22 22 22 20 20 20 20 22 23 25 26 28 29 30 30 30 31 31 32
5 5 4 4 4 5 5 5 5 4 4 4 4 5 5 3 2 3 3 4 5 5 4 5 6 6 6 5 5 5 5 5 6 6 6 7 8 11 12 9 13 17 14 10 12 7 6 9 6 7 8 9 8 8 8 9 9 13 16 12 16 16 18 18 20 21 21 21 21 21 20 21 21 21 22 22 24 26 27 29 29 30 30 30 30
4 4 2 4 5 3 3 4 3 4 4 4 4 5 5 5 5 5 4 3 4 4 4 5 5 5 5 6 6 6 6 5 6 6 7 8 8 9 11 10 10 13 15 13 10 10 3 4 5 7 7 7 7 8 7 9 9 13 15 13 14 16 18 18 16 18 20 22 19 22 21 20 19 20 21 24 24 24 25 26 28 30 30 31 31
5 3 4 5 4 4 4 4 4 4 4 5 5 5 5 5 5 4 4 5 5 5 4 4 5 5 6 5 6 6 5 6 6 7 7 8 9 10 11 16 18 15 12 14 14 11 8 8 4 7 6 6 8 7 8 7 11 15 16 12 11 17 19 20 16 17 18 20 21 22 22 20 19 21 21 24 23 23 23 25 25 28 30 31 31
4 4 4 4 4 4 4 4 4 4 5 5 5 5 4 5 5 5 5 3 4 4 4 4 4 4 4 5 5 5 6 6 6 7 6 6 7 8 9 10 13 18 17 16 13 12 3 7 4 5 6 7 8 8 8 10 8 13 15 10 9 9 13 16 16 19 22 23 23 24 20 18 21 22 21 20 20 21 21 23 24 25 27 27 29
3 3 4 4 5 4 5 5 5 5 5 5 5 5 5 5 6 5 6 5 4 4 3 5 4 4 4 4 4 5 4 5 5 5 6 6 6 6 6 8 9 13 14 15 20 15 11 2 6 7 5 7 7 4 6 6 8 10 8 8 9 10 13 18 19 22 23 27 26 20 18 19 21 23 20 19 20 21 21 21 22 25 26 27 28
4 4 5 5 5 5 5 5 5 5 5 5 5 5 5 6 5 5 4 4 4 4 3 3 5 4 5 5 4 4 5 5 5 5 5 5 6 6 7 6 7 11 12 15 20 16 12 13 2 4 6 5 4 9 7 7 11 12 9 10 11 11 16 18 21 22 22 20 17 18 20 23 26 24 23 22 21 21 22 23 26 27 26 27 28
6 6 6 5 5 5 5 5 6 6 5 5 5 5 4 5 4 4 4 4 4 5 4 4 4 5 5 6 6 5 5 6 6 6 5 4 5 6 6 6 6 9 11 10 15 19 11 12 15 8 8 14 11 7 9 7 8 11 9 9 10 13 15 12 15 14 13 16 19 21 25 26 23 21 21 21 20 22 24 25 27 24 26 26 28
4 4 5 5 5 5 5 6 5 5 5 5 4 4 4 3 4 4 5 5 6 6 6 5 4 4 5 6 6 5 5 4 5 5 5 5 5 5 5 6 6 7 8 11 14 21 18 13 15 16 8 10 14 13 11 11 10 15 11 11 13 16 12 11 14 16 14 20 24 24 26 23 22 23 25 21 22 25 27 26 27 25 25 28 28
4 5 5 4 4 4 4 4 4 4 4 5 4 4 5 5 5 5 5 5 5 5 4 6 5 4 4 5 7 6 5 5 6 5 5 6 5 5 6 6 7 6 8 10 14 19 19 14 9 13 14 11 15 12 11 13 12 10 11 11 11 12 12 11 11 14 17 20 23 25 27 25 22 21 21 20 20 22 24 24 24 25 26 27 29
4 4 4 4 4 4 4 4 4 4 4 4 5 5 6 7 6 4 4 4 5 5 5 6 6 5 5 6 7 7 5 5 6 6 6 6 5 5 6 6 7 7 6 9 12 13 19 16 11 5 10 7 15 13 12 13 16 14 14 12 10 10 11 11 11 12 18 20 22 24 27 23 20 21 19 18 20 20 23 24 25 26 26 27 26
4 4 4 5 4 4 4 5 5 5 5 5 5 5 6 4 4 5 4 4 4 5 6 6 7 6 6 6 8 7 5 5 6 7 6 6 5 6 7 7 8 8 8 9 11 13 16 17 16 14 13 10 11 15 14 12 13 13 16 14 13 11 11 11 11 11 16 20 26 27 22 21 20 21 20 18 20 22 23 24 27 27 27 20 15
6 5 4 5 5 5 5 6 5 5 5 5 5 4 4 4 4 5 4 4 4 4 5 6 7 6 7 7 8 7 6 7 8 7 7 6 7 7 7 7 8 10 8 8 10 12 12 16 16 13 10 12 14 10 10 11 14 13 12 14 13 13 12 10 11 11 11 20 22 24 21 20 21 21 19 19 20 22 22 25 30 29 18 21 21
4 5 6 5 6 5 6 4 4 4 4 4 4 5 4 4 4 4 4 4 4 5 5 6 7 6 7 7 9 8 7 8 10 8 8 8 8 7 8 8 8 8 8 8 9 10 12 14 16 14 14 13 12 13 9 12 14 12 11 13 13 14 14 10 8 9 15 23 22 22 21 20 18 20 20 21 21 21 22 26 18 16 21 22 24
5 5 4 5 3 4 4 4 4 4 4 4 4 4 5 5 4 4 4 4 4 5 5 6 6 6 7 9 8 8 8 9 11 10 9 10 9 9 9 9 9 8 9 9 9 10 11 13 14 16 14 15 14 12 10 8 12 15 15 15 14 11 10 10 8 9 8 9 9 11 14 17 21 22 21 22 20 21 21 18 14 14 15 19 19
4 4 4 4 4 3 4 4 4 4 4 4 4 4 4 4 4 4 5 5 5 5 5 6 7 7 7 8 9 8 9 9 10 11 11 10 10 10 10 9 9 9 9 9 9 10 11 12 13 13 15 14 12 16 12 11 12 11 13 14 15 12 7 8 12 9 7 8 11 17 15 14 15 14 15 18 19 20 22 18 19 17 16 16 17
3 2 2 3 4 3 3 4 4 4 4 4 4 4 4 4 5 5 5 6 7 7 7 7 7 8 8 8 9 9 10 10 10 11 10 11 10 11 10 7 8 10 10 10 10 10 10 11 11 12 9 12 11 11 11 10 11 10 8 9 13 14 14 11 9 10 6 5 8 9 10 12 14 16 18 17 20 19 21 15 14 16 16 17 19
2 2 2 2 3 4 3 3 4 4 4 5 4 4 6 6 5 6 6 6 7 8 8 8 7 8 8 8 8 9 10 14 17 16 15 14 11 12 13 9 8 9 11 11 10 10 9 10 13 11 12 13 12 12 12 11 11 12 11 11 13 13 13 13 13 8 7 9 8 7 8 7 6 8 6 7 8 12 10 13 11 16 19 21 25
3 3 3 3 3 3 4 5 5 4 5 4 6 11 9 6 6 6 6 7 7 7 8 9 9 7 8 8 10 14 16 17 17 18 19 19 18 15 14 12 12 11 11 12 12 10 10 12 12 13 14 14 13 12 13 12 12 11 12 12 13 13 12 13 13 9 6 7 7 9 9 5 5 7 6 7 7 6 7 7 8 11 17 25 26
3 3 3 3 4 3 4 4 6 6 6 6 10 11 11 13 7 5 6 7 6 7 8 9 10 11 10 9 9 11 12 12 12 16 17 18 18 19 21 20 17 14 13 14 14 12 12 12 13 13 13 15 15 13 13 13 11 12 12 12 12 12 11 13 14 9 4 7 7 7 9 3 4 7 5 6 5 4 6 8 17 21 24 26 26
4 3 3 3 4 4 4 4 5 6 6 8 12 12 12 12 11 8 6 7 7 7 7 9 9 10 11 12 10 8 7 8 10 10 13 16 17 18 19 20 20 21 20 16 15 13 12 13 14 14 14 15 15 13 13 12 13 13 12 10 11 12 13 13 12 13 4 7 6 7 8 1 3 4 4 3 3 6 7 16 24 25 26 27 27
3 3 4 4 4 4 3 4 5 6 6 8 11 12 11 12 13 12 7 6 8 9 9 9 9 10 10 11 12 12 9 10 9 9 11 12 15 18 19 20 21 21 23 23 21 18 15 16 15 15 12 13 14 14 13 14 13 16 14 13 12 12 12 13 13 12 6 6 5 6 7 2 2 4 5 3 3 7 12 20 24 26 27 27 27
3 4 4 4 4 4 4 4 5 6 7 8 11 12 12 14 15 12 6 7 7 8 9 9 9 10 10 11 12 14 13 11 7 7 9 11 12 13 12 12 12 14 17 20 20 22 20 17 16 16 15 14 17 16 17 15 17 16 15 15 14 13 13 14 15 13 7 8 8 6 3 1 1 3 4 2 4 7 8 17 25 26 26 27 26
4 4 5 4 5 4 4 4 4 6 6 11 11 12 13 16 17 11 6 7 8 9 9 8 9 10 11 10 11 13 13 13 10 10 11 11 13 14 14 15 14 13 13 12 11 11 12 12 14 16 17 16 17 17 16 16 16 16 14 16 17 16 16 17 15 12 8 7 8 6 8 3 2 4 2 1 3 5 6 17 23 25 26 26 27
3 3 4 4 5 5 4 4 5 7 6 11 13 13 14 15 18 9 7 8 9 10 11 10 9 9 9 9 10 12 13 14 15 18 16 13 13 15 17 16 16 15 14 13 16 15 15 13 13 15 15 16 20 18 18 17 14 14 13 13 13 13 14 14 15 11 9 6 10 9 3 4 2 6 3 2 2 7 7 8 21 24 26 26 26
4 4 4 4 4 4 4 4 5 7 5 7 13 15 15 17 12 8 8 9 10 11 12 12 10 10 10 9 9 11 13 14 19 22 22 21 14 15 16 17 16 17 17 15 16 19 20 21 24 27 31 32 32 33 34 35 24 20 15 15 17 14 13 13 14 11 9 5 7 7 6 6 5 5 6 4 4 4 6 8 11 22 26 26 26
4 4 4 4 4 4 4 4 4 6 7 6 11 14 17 18 13 9 8 9 11 11 12 12 11 10 12 17 14 11 12 14 21 24 28 21 15 15 16 17 19 18 17 15 14 14 18 23 24 25 25 25 28 31 32 34 31 22 15 16 17 13 15 14 14 12 6 6 7 8 7 6 7 6 8 2 8 6 5 6 9 14 22 22 26
5 5 4 4 4 4 4 4 6 6 7 6 10 15 18 19 14 8 8 8 10 12 12 13 13 12 12 12 15 15 14 17 27 27 28 23 16 16 16 18 18 18 15 15 15 17 17 18 16 13 13 15 15 15 17 25 25 23 18 17 15 14 13 14 13 10 4 4 5 10 9 6 9 6 10 7 5 3 5 6 7 7 8 9 12
Wind_Direction
181 196 169 184 202 206 183 195 191 205 190 202 184 194 208 222 210 207 204 220 237 261 248 261 259 263 250 269 270 269 263 265 273 274 274 255 228 233 228 233 235 235 238 244 255 266 269 265 260 259 265 266 257 242 230 238 218 228 244 243 236 239 246 245 245 246 246 246 248 247 246 245 242 242 235 239 233 223 231 223 234 242 218 225 232
185 192 180 203 198 192 175 188 195 194 190 194 205 186 203 225 230 225 213 226 237 240 231 245 260 249 241 243 258 254 248 246 257 269 269 275 247 231 239 234 237 238 239 243 247 252 262 269 271 268 264 264 264 255 246 249 222 229 238 249 236 233 234 235 233 233 234 237 240 240 241 240 241 248 251 243 242 238 239 241 230 233 227 227 228
184 185 184 196 197 188 188 178 201 199 190 201 190 196 199 207 212 216 216 220 228 226 208 231 243 253 247 243 250 250 255 251 254 261 271 266 265 253 239 239 240 240 240 241 244 249 253 259 263 267 267 267 262 259 255 252 254 258 258 253 239 238 235 236 234 232 230 234 238 240 240 240 239 240 241 238 237 239 238 234 231 231 232 229 228
168 196 186 186 189 186 200 184 209 212 195 199 197 208 198 211 219 218 215 206 237 264 242 230 242 244 242 250 257 256 254 250 251 257 261 263 259 258 249 242 245 245 246 245 245 247 249 252 258 263 269 267 268 262 262 263 261 254 249 243 241 238 234 235 239 243 235 235 240 244 243 240 240 240 239 239 236 238 237 237 235 233 232 232 228
165 181 181 184 187 188 201 206 211 209 199 199 198 209 208 202 251 259 232 231 274 274 272 236 252 260 258 249 245 257 257 252 249 253 257 258 258 255 257 247 243 247 248 249 250 250 249 251 252 258 263 267 266 267 263 259 259 260 251 244 235 238 241 242 240 238 240 246 242 239 241 244 243 241 239 238 237 235 239 240 237 236 234 235 234
162 169 188 163 179 198 204 217 219 210 202 194 194 198 206 215 246 293 267 272 267 269 288 285 270 273 269 263 246 250 255 253 246 245 249 254 252 256 255 254 243 244 243 246 247 250 252 250 253 255 257 258 261 262 264 265 265 258 257 253 254 252 247 248 248 239 241 240 243 241 238 235 239 241 239 238 240 239 241 239 238 239 238 232 234
171 176 209 204 213 206 213 225 218 205 192 202 189 195 190 214 220 243 260 260 254 262 259 257 266 268 263 264 261 258 257 249 247 249 247 249 253 253 252 249 249 244 242 242 243 245 246 249 250 250 251 254 256 259 263 264 265 265 261 258 258 253 253 251 249 247 244 238 234 228 232 238 236 236 238 238 238 236 237 238 236 240 239 240 235
109 97 245 257 228 229 231 240 239 201 198 194 179 191 209 225 232 209 240 255 257 266 253 258 255 259 260 260 257 255 253 250 247 247 246 249 250 253 250 248 246 244 241 239 243 241 240 243 246 247 248 250 251 255 257 260 264 265 265 264 261 260 257 257 257 252 245 248 245 248 246 239 235 236 235 235 238 239 242 241 236 238 238 237 235
147 161 220 228 251 259 271 245 237 214 191 191 191 203 199 221 240 227 214 243 239 259 270 257 261 259 265 265 260 256 250 245 243 244 253 247 250 249 250 248 245 245 244 242 242 244 245 241 241 245 248 248 249 250 253 256 260 263 265 266 266 266 263 261 260 258 253 252 251 250 245 240 241 234 231 235 238 240 237 237 236 235 235 236 235
202 232 224 242 252 235 244 246 231 221 213 190 204 203 214 215 245 250 235 242 252 252 261 259 259 273 279 272 270 266 259 257 252 255 250 255 252 249 245 247 246 245 244 244 244 246 249 248 246 247 247 248 249 248 251 254 257 259 262 264 266 266 266 265 260 253 254 253 254 250 245 242 242 237 236 231 232 238 238 237 236 235 235 235 235
193 207 236 253 245 242 244 248 226 208 218 220 228 245 259 250 237 264 254 231 238 244 250 261 274 278 277 272 270 265 271 266 267 264 257 252 253 253 254 251 248 250 249 249 247 249 250 250 251 252 253 249 249 249 250 252 255 258 260 264 265 266 267 267 267 261 250 249 250 250 247 244 245 249 240 234 235 235 236 239 239 238 232 234 235
195 199 208 225 242 250 248 246 242 216 225 245 247 230 234 241 248 241 260 264 240 250 260 275 277 276 276 278 267 273 277 268 265 259 258 257 254 257 256 257 254 253 254 252 253 250 249 251 250 251 253 254 250 251 253 254 256 256 259 263 266 268 268 268 269 268 266 253 247 249 249 242 242 238 235 235 235 235 233 235 237 238 239 237 235
208 204 213 219 221 231 240 252 246 238 229 229 224 231 230 223 238 221 237 256 266 239 258 228 277 287 276 273 283 264 259 260 257 254 250 251 256 258 255 260 254 254 252 254 255 252 249 250 249 250 253 252 256 253 252 254 256 258 259 261 264 267 269 271 270 269 266 263 257 249 242 244 243 240 238 238 239 238 237 235 234 236 236 235 233
205 207 218 222 225 223 220 227 227 227 229 236 239 233 232 227 227 259 219 232 255 223 242 131 271 256 298 302 288 268 253 245 245 248 250 257 256 249 251 248 253 252 256 256 256 252 251 248 249 251 251 252 252 253 253 254 256 255 257 260 261 264 267 269 272 273 271 266 260 250 252 253 247 246 242 243 245 245 240 238 237 238 238 235 232
205 208 216 225 227 225 225 222 219 220 229 241 245 255 243 242 228 226 252 228 244 238 217 182 254 228 247 303 293 324 298 284 265 267 253 251 247 246 247 250 253 252 254 256 254 250 248 246 249 250 251 250 251 250 249 252 252 252 253 255 258 261 265 268 271 272 274 274 270 263 255 251 253 250 249 251 250 244 238 238 238 238 236 236 234
204 208 215 221 222 228 235 222 229 218 222 236 232 236 227 226 224 234 215 281 257 261 199 191 208 250 301 210 285 316 308 286 304 269 222 237 237 247 248 253 252 257 256 251 249 251 250 249 252 250 252 252 251 249 250 249 253 253 254 256 259 261 264 267 269 273 275 274 275 275 272 266 258 255 256 252 245 245 242 242 239 236 234 233 236
206 209 214 223 228 225 225 231 233 232 221 234 236 228 224 221 216 221 216 232 256 246 255 199 214 208 233 304 307 268 233 286 318 292 250 243 264 254 253 256 254 254 251 254 260 255 255 254 252 254 253 254 254 252 251 252 253 253 254 254 255 256 260 263 266 270 272 274 276 278 278 277 273 267 262 257 257 252 248 243 242 235 236 238 236
215 223 218 223 234 238 238 241 249 258 227 218 228 236 232 227 225 222 243 236 242 270 278 245 215 210 219 225 231 269 296 293 339 309 99 267 269 244 258 258 250 255 240 252 256 251 241 252 250 254 253 252 253 253 252 253 252 253 250 254 250 252 256 259 263 266 270 272 274 276 279 282 283 284 281 278 273 267 259 254 246 241 236 237 236
83 122 227 218 247 273 280 286 286 286 276 274 263 258 265 249 237 226 241 250 202 242 247 266 271 247 225 230 240 250 271 308 289 306 305 259 208 295 251 255 266 257 244 238 250 252 245 238 251 251 252 251 252 252 252 251 250 250 251 253 255 258 260 262 265 266 268 271 272 274 277 280 283 285 288 288 286 283 279 273 269 260 252 242 238
59 56 66 62 46 14 357 353 348 304 311 299 284 281 273 273 276 278 269 224 212 226 250 246 245 261 209 250 268 284 282 276 266 274 291 301 287 250 253 261 254 246 255 253 248 246 249 243 248 255 254 250 249 250 249 253 253 256 258 255 260 259 259 262 263 264 266 267 270 273 276 280 284 287 287 288 290 291 289 289 288 283 269 253 244
61 72 76 74 67 56 37 31 21 0 7 339 324 322 314 314 318 311 277 263 235 244 253 261 260 271 310 262 242 253 256 243 257 239 259 289 291 300 304 266 237 244 259 236 247 251 246 251 250 252 257 254 249 252 251 252 255 255 256 259 259 257 262 263 262 263 264 264 265 267 272 276 280 283 285 288 289 289 290 289 288 290 293 286 263
19 31 30 15 358 356 350 344 357 19 18 357 357 357 356 350 334 317 305 291 279 264 254 269 267 273 265 273 264 293 276 262 255 270 265 250 277 298 298 304 305 286 222 273 239 246 249 248 257 257 253 255 254 249 248 249 251 257 257 256 256 260 264 265 266 266 266 267 268 268 270 274 276 279 283 285 286 288 288 288 290 292 291 288 282
7 4 14 2 3 13 10 358 352 348 349 8 3 2 2 6 2 3 356 343 332 328 315 297 288 284 279 271 266 260 275 312 294 253 231 266 276 284 297 303 300 304 295 245 273 263 235 251 255 253 248 259 256 258 255 254 254 254 259 261 260 260 259 261 264 265 267 269 272 274 275 276 276 277 280 283 286 287 288 288 287 287 288 290 290
29 41 29 28 39 36 31 32 27 20 11 357 359 350 11 4 354 357 346 338 336 337 327 322 311 296 285 283 283 287 273 267 285 285 280 286 298 295 302 306 297 282 294 304 276 264 271 248 246 252 252 255 259 252 261 263 259 257 259 261 262 263 263 259 259 260 262 265 270 273 275 275 274 276 276 279 283 285 287 287 287 286 285 284 285
32 50 24 28 43 37 32 33 23 20 15 17 8 357 359 342 337 342 335 339 343 347 345 334 336 330 322 312 304 299 300 312 302 302 296 296 295 296 293 300 298 302 301 299 300 288 217 257 220 240 245 246 251 255 252 259 261 260 261 266 264 263 263 262 261 265 267 270 274 276 276 277 278 277 278 277 279 282 283 285 286 287 286 284 283
62 46 5 35 36 44 43 35 30 26 26 27 23 15 19 6 0 355 354 340 345 348 341 340 342 338 339 335 334 330 327 328 321 314 315 310 301 297 302 301 294 296 303 303 298 307 294 220 250 248 238 255 250 253 258 254 261 267 264 263 265 259 260 259 255 257 263 268 268 272 273 274 275 278 278 276 276 277 279 280 283 286 286 285 284
63 41 32 39 33 29 31 32 22 25 27 27 25 25 21 21 15 6 355 350 355 357 346 349 343 337 334 330 323 317 325 329 330 326 330 323 321 325 327 319 312 304 296 298 299 280 292 289 227 258 244 241 261 251 254 254 249 252 257 258 254 251 251 256 253 255 257 262 263 265 265 265 270 278 273 272 273 275 276 279 279 282 284 285 285
51 49 34 50 39 34 31 30 25 27 27 26 24 24 18 24 13 11 359 358 5 4 344 354 344 338 336 340 337 325 333 328 327 323 318 315 317 316 317 313 311 309 313 306 298 287 275 280 286 215 253 246 241 253 247 253 266 262 256 259 265 265 257 259 260 255 258 262 260 258 261 264 269 275 270 268 267 269 270 275 279 279 281 282 283
55 50 45 41 43 40 38 27 24 24 24 21 20 20 16 18 16 3 357 345 8 358 344 355 332 330 327 325 312 311 309 313 315 312 307 305 300 297 291 294 301 299 304 305 302 304 316 220 283 287 197 261 283 264 288 286 265 269 272 261 262 261 253 250 251 259 259 261 262 262 256 262 275 280 273 261 263 266 270 270 272 273 274 276 278
49 39 44 39 36 35 40 31 23 28 25 20 20 18 20 16 8 357 342 351 356 344 345 343 325 322 315 314 310 303 296 303 296 297 304 306 308 308 306 304 306 300 298 296 291 294 305 308 253 302 333 306 297 303 286 267 274 267 266 267 264 265 263 260 261 264 271 280 281 275 277 283 285 279 269 266 266 267 270 273 275 275 272 275 274
46 37 34 33 30 31 39 30 27 22 18 20 14 15 18 15 359 349 336 355 358 340 328 350 322 331 319 310 307 297 293 293 291 295 291 288 287 290 286 287 287 284 285 291 301 290 302 299 303 306 305 304 306 307 308 297 286 284 284 288 285 286 288 286 281 274 266 266 271 274 278 284 280 271 270 269 266 266 271 275 276 273 275 271 272
52 47 44 34 26 28 24 35 28 23 20 7 13 8 15 19 2 357 345 4 356 345 328 329 323 314 308 304 297 295 296 295 292 291 288 276 273 280 280 279 270 263 272 275 273 283 292 291 295 300 310 310 309 305 302 298 297 295 290 284 283 282 281 277 272 267 264 270 275 277 280 280 275 272 269 270 271 274 280 279 278 276 273 273 267
49 47 44 33 26 26 31 36 41 29 28 14 12 16 19 7 5 2 351 359 350 326 326 315 314 308 297 291 289 287 288 292 283 285 282 278 277 271 275 278 275 266 278 284 284 286 290 287 279 290 303 309 296 298 301 299 297 292 287 282 279 276 275 271 271 271 273 275 276 277 279 275 268 269 273 272 274 278 278 277 275 273 269 269 268
56 53 47 33 33 28 33 26 30 27 22 20 10 21 15 5 350 356 350 343 336 317 319 308 304 301 296 292 288 286 281 277 281 278 272 278 273 273 268 265 271 266 245 263 273 281 287 299 295 269 282 287 290 297 302 303 302 302 294 290 283 277 274 276 278 279 276 275 274 275 276 273 269 269 270 277 279 277 277 275 274 268 268 262 255
51 60 43 38 27 25 24 18 18 16 11 6 4 13 3 354 335 322 322 327 322 316 316 305 304 304 303 291 287 287 287 286 277 273 273 272 266 262 265 261 264 262 253 246 265 273 280 286 291 297 295 296 284 297 300 296 291 293 295 294 289 283 275 272 273 273 271 270 277 276 268 266 268 272 277 277 278 279 277 277 272 270 263 251 189
41 24 42 29 26 19 14 6 8 1 355 350 342 343 327 324 317 307 308 314 310 304 297 297 299 301 293 298 290 291 295 293 285 282 276 265 265 262 263 257 257 263 256 252 247 264 277 285 289 291 295 302 296 288 293 293 290 291 290 292 288 281 280 275 265 268 269 273 269 271 272 272 274 277 278 278 278 277 277 275 275 261 229 162 155
34 30 17 25 20 9 358 346 339 336 327 322 325 320 315 304 294 285 284 293 300 296 290 288 291 291 292 286 291 297 297 289 287 278 274 273 262 260 260 263 258 259 261 252 252 251 262 269 280 283 290 286 286 291 296 300 299 293 291 287 287 286 283 270 258 256 263 266 268 270 270 271 273 274 275 278 276 276 276 278 245 186 158 159 155
24 27 26 1 8 334 329 323 320 315 313 314 305 300 300 302 296 283 274 280 281 282 286 286 288 291 292 292 290 289 287 280 279 279 274 271 271 265 262 263 263 260 261 257 252 254 255 264 272 285 286 291 294 287 295 289 293 300 300 293 286 275 270 277 256 253 247 252 258 266 269 271 271 272 275 274 274 275 276 261 169 154 153 149 150
40 13 2 349 319 322 311 320 313 305 304 298 292 289 289 288 286 289 294 293 292 292 288 290 290 288 282 280 282 277 273 270 273 276 280 279 274 269 265 265 267 268 265 263 261 258 259 266 269 267 279 279 279 293 296 290 283 279 288 294 294 292 269 247 274 264 244 247 257 262 259 259 267 268 269 275 273 274 278 239 173 157 141 137 148
14 358 334 309 294 305 297 301 294 295 295 298 294 289 288 293 298 294 294 300 301 298 294 289 284 278 275 272 269 269 265 267 268 273 273 277 278 280 272 257 264 271 272 271 267 263 264 265 264 274 262 278 283 272 282 287 288 282 270 280 288 296 295 285 259 266 262 234 245 258 263 263 265 268 271 271 273 269 272 199 161 138 140 148 150
360 327 294 294 316 320 312 304 307 310 309 302 299 306 313 310 305 306 304 300 296 294 288 280 273 271 273 267 263 263 264 264 264 266 268 268 276 282 282 277 267 265 273 275 274 271 266 264 273 268 276 277 275 284 288 286 287 289 294 290 285 284 286 285 282 250 231 246 253 255 257 241 254 263 257 264 263 268 226 151 142 140 153 156 151
338 313 315 321 336 324 325 322 319 314 305 295 298 303 304 299 301 296 293 286 285 283 287 291 288 275 270 276 276 270 270 272 273 273 273 272 267 262 271 280 279 276 273 276 275 272 273 274 272 279 280 277 279 279 281 280 283 284 285 285 285 286 286 280 278 265 209 220 246 254 256 229 222 258 251 249 260 220 155 140 149 160 163 153 147
321 315 324 332 326 322 316 314 316 315 310 306 303 301 300 304 302 297 288 290 284 283 286 291 297 301 296 282 275 278 278 277 274 272 273 273 273 273 270 268 265 266 276 275 274 276 277 270 273 274 273 277 278 281 279 284 281 282 281 281 282 287 287 294 294 291 183 200 229 254 261 209 189 238 244 234 205 163 145 147 161 163 154 146 143
311 319 333 319 319 318 318 311 300 293 293 289 293 294 297 303 316 311 304 300 300 295 290 291 294 297 298 298 294 286 273 271 280 285 283 282 281 277 275 274 272 267 259 261 273 277 272 277 275 268 274 272 280 282 283 283 285 284 280 280 280 282 285 282 281 284 279 166 215 240 258 141 192 219 205 240 180 148 147 156 162 157 151 147 142
310 329 319 327 312 310 298 292 289 288 287 285 293 299 306 319 320 320 306 298 299 297 296 294 292 293 295 299 302 299 294 287 287 289 290 291 288 283 279 278 275 272 276 271 261 258 268 265 267 270 262 276 277 277 279 283 284 286 289 283 278 277 276 277 275 278 273 184 201 235 240 209 156 190 183 175 175 144 151 159 160 152 145 141 139
332 322 320 313 300 295 286 281 284 285 293 294 307 313 316 320 319 321 307 303 297 290 292 293 293 294 294 297 301 302 306 307 296 286 287 291 294 293 291 285 280 274 271 267 263 260 256 259 263 266 269 268 273 275 275 275 278 278 281 280 280 279 278 275 276 276 271 161 206 220 227 207 210 145 155 126 152 149 143 161 155 148 142 139 136
318 313 309 310 297 290 289 281 282 292 293 309 318 322 325 325 325 328 311 303 299 296 295 293 290 290 293 293 293 295 300 304 305 303 300 299 297 296 295 294 290 287 282 279 271 267 264 259 261 263 270 270 270 271 272 270 266 265 266 272 276 279 278 277 273 265 255 197 203 189 226 145 170 121 81 354 138 131 128 156 148 143 139 137 134
311 301 295 280 281 296 298 305 313 315 321 327 326 328 331 331 331 328 321 314 312 308 305 305 300 294 293 294 297 299 300 300 305 304 301 300 296 295 296 295 296 295 289 282 278 272 270 273 273 272 271 272 273 273 273 274 272 271 270 271 272 270 273 271 272 271 245 205 195 192 148 150 163 130 92 5 128 125 133 137 145 140 137 133 131
299 289 275 277 278 293 309 318 323 316 326 333 331 331 334 335 332 328 326 322 316 314 310 310 309 306 301 299 297 298 300 299 304 306 304 306 300 298 294 295 295 295 295 295 289 284 282 282 281 280 282 284 286 287 287 283 279 280 284 283 277 277 277 276 275 272 253 194 201 188 141 139 157 139 100 26 29 85 111 131 136 139 134 132 132
295 277 279 286 289 291 304 317 312 314 320 335 335 333 336 338 336 330 325 323 315 313 312 310 310 305 300 300 299 297 298 298 304 305 309 310 303 300 298 297 298 296 294 298 297 291 289 284 278 274 271 273 278 282 282 282 280 279 274 272 275 279 274 273 274 272 269 178 192 142 135 149 140 131 107 82 59 12 26 92 119 130 129 128 129
269 280 289 299 309 313 314 315 318 321 317 333 344 339 338 339 339 332 328 323 316 313 313 312 311 309 306 306 305 304 304 305 310 312 312 313 309 306 305 300 294 292 294 298 298 299 300 298 292 286 278 273 276 276 274 273 268 265 260 260 266 264 263 268 266 273 262 202 155 155 128 155 140 169 137 119 48 348 9 32 73 87 98 109 121